TimeAKDT,TemperatureF,Dew PointF,Humidity,Sea Level PressureIn,VisibilityMPH,Wind Direction,Wind SpeedMPH,Gust SpeedMPH,PrecipitationIn,Events,Conditions,WindDirDegrees,DateUTC
12:53 AM,28.0,16.0,61,29.46,10.0,North,19.6,28.8,N/A,,Clear,10,2012-10-13 08:53:00
1:53 AM,28.0,16.0,61,29.45,10.0,North,21.9,-,N/A,,Clear,10,2012-10-13 09:53:00
2:53 AM,27.0,16.0,63,29.45,10.0,North,18.4,25.3,N/A,,Clear,350,2012-10-13 10:53:00
4:53 AM,26.1,15.1,63,29.43,10.0,North,21.9,28.8,N/A,,Clear,360,2012-10-13 12:53:00
6:53 AM,26.1,16.0,66,29.44,10.0,North,19.6,29.9,N/A,,Clear,360,2012-10-13 14:53:00
7:53 AM,25.0,15.1,66,29.44,10.0,North,19.6,29.9,N/A,,Clear,360,2012-10-13 15:53:00
8:53 AM,26.1,16.0,66,29.44,10.0,North,23.0,28.8,N/A,,Clear,360,2012-10-13 16:53:00
9:53 AM,27.0,15.1,61,29.44,10.0,North,28.8,35.7,N/A,,Partly Cloudy,10,2012-10-13 17:53:00
10:53 AM,28.0,14.0,56,29.44,8.0,North,32.2,42.6,N/A,,Partly Cloudy,10,2012-10-13 18:53:00
11:53 AM,28.9,14.0,54,29.43,10.0,North,26.5,38.0,N/A,,Partly Cloudy,10,2012-10-13 19:53:00
12:53 PM,30.9,14.0,50,29.43,5.0,North,31.1,41.4,N/A,,Widespread Dust,10,2012-10-13 20:53:00
1:53 PM,32.0,14.0,48,29.42,10.0,North,31.1,41.4,N/A,,Partly Cloudy,10,2012-10-13 21:53:00
2:53 PM,33.1,14.0,46,29.42,10.0,North,27.6,43.7,N/A,,Clear,10,2012-10-13 22:53:00
3:53 PM,34.0,12.9,42,29.42,10.0,North,31.1,43.7,N/A,,Clear,10,2012-10-13 23:53:00
4:53 PM,35.1,12.9,40,29.41,10.0,NNE,29.9,36.8,N/A,,Scattered Clouds,20,2012-10-14 00:53:00
5:53 PM,35.1,12.9,40,29.42,10.0,NNE,26.5,38.0,N/A,,Clear,20,2012-10-14 01:53:00
6:53 PM,33.1,12.9,43,29.43,10.0,NNE,21.9,29.9,N/A,,Clear,20,2012-10-14 02:53:00
7:53 PM,30.9,12.9,47,29.44,10.0,NNE,19.6,-,N/A,,Clear,20,2012-10-14 03:53:00
8:53 PM,30.0,14.0,51,29.45,10.0,North,16.1,-,N/A,,Clear,360,2012-10-14 04:53:00
9:53 PM,28.9,17.1,61,29.46,10.0,North,19.6,25.3,N/A,,Clear,360,2012-10-14 05:53:00
10:53 PM,28.0,18.0,66,29.47,10.0,North,16.1,-,N/A,,Clear,350,2012-10-14 06:53:00
11:53 PM,26.1,18.0,71,29.47,10.0,North,16.1,-,N/A,,Clear,350,2012-10-14 07:53:00